This is the latest recevied weather packets stored in our database for station/object W4CKA. If no packets are shown the sender has not sent any weather packets the latest 10 day(s).
| Time | Temp. | Humidity | Pressure | Rain* | Wind** | Luminosity | Snow |
|---|---|---|---|---|---|---|---|
| 1777933640 | 25° C | 44% | 1054.2 hPa | 0 mm | - | 182 W/m² | - |
| 1777933040 | 25° C | 43% | 1054.3 hPa | 0 mm | - | 213 W/m² | - |
| 1777932440 | 25° C | 44% | 1054.3 hPa | 0 mm | - | 217 W/m² | - |
| 1777931840 | 25° C | 45% | 1054.2 hPa | 0 mm | - | 274 W/m² | - |
| 1777931239 | 25.56° C | 44% | 1054.4 hPa | 0 mm | - | 308 W/m² | - |
| 1777930638 | 25° C | 45% | 1054.3 hPa | 0 mm | - | 330 W/m² | - |
| 1777930037 | 25° C | 46% | 1054.3 hPa | 0 mm | - | 341 W/m² | - |
| 1777929437 | 25.56° C | 45% | 1054.5 hPa | 0 mm | - | 355 W/m² | - |
| 1777928836 | 25° C | 44% | 1054.5 hPa | 0 mm | - | 421 W/m² | - |
| 1777928236 | 25° C | 47% | 1054.7 hPa | 0 mm | - | 438 W/m² | - |
| 1777927632 | 24.44° C | 43% | 1055 hPa | 0 mm | - | 464 W/m² | - |
| 1777927029 | 24.44° C | 49% | 1054.9 hPa | 0 mm | - | 508 W/m² | - |
| 1777926426 | 23.89° C | 46% | 1055.1 hPa | 0 mm | - | 541 W/m² | - |
| 1777925820 | 25.56° C | 48% | 1055.2 hPa | 0 mm | - | 557 W/m² | - |
| 1777925215 | 25.56° C | 50% | 1055.1 hPa | 0 mm | - | 551 W/m² | - |
| 1777924613 | 24.44° C | 52% | 1055.3 hPa | 0 mm | - | 593 W/m² | - |
| 1777924012 | 23.89° C | 51% | 1055.9 hPa | 0 mm | - | 612 W/m² | - |
| 1777923410 | 23.89° C | 56% | 1055.9 hPa | 0 mm | - | 626 W/m² | - |
| 1777922806 | 23.89° C | 52% | 1056 hPa | 0 mm | - | 700 W/m² | - |
| 1777922202 | 23.33° C | 55% | 1056.2 hPa | 0 mm | - | 653 W/m² | - |
| 1777921600 | 22.78° C | 58% | 1056.6 hPa | 0 mm | - | 647 W/m² | - |
| 1777920999 | 22.78° C | 53% | 1056.8 hPa | 0 mm | - | 722 W/m² | - |
| 1777920398 | 22.22° C | 51% | 1056.8 hPa | 0 mm | - | 695 W/m² | - |
| 1777919796 | 22.22° C | 53% | 1057.1 hPa | 0 mm | - | 695 W/m² | - |
| 1777919191 | 21.67° C | 55% | 1057 hPa | 0 mm | - | 680 W/m² | - |
* Rain latest hour (hover to see other rain measurements)
** Current wind speed in m/s (hover to see current wind gust speed)